HP21 MPMG-MPEJ

Flight info

Callsign HP21
Flight time N/A
Altitude 2500
Route DIRECT
Aircraft DA40/L-SG/C

Departure

Time N/A
Airport Marcos A. Gelabert International Airport (MPMG)

Arrival

Time 2026-04-21 16:23
Airport Enrique Adolfo Jimenez Airport (MPEJ)
Time Latitude Longitude Altitude Speed Heading
2026-04-21 16:20 9.33625 -79.88936 1082 ft 138 kts 188°
2026-04-21 16:21 9.32935 -79.88965 948 ft 149 kts 175°
2026-04-21 16:21 9.32213 -79.88365 1006 ft 133 kts 108°
2026-04-21 16:21 9.32099 -79.87489 961 ft 112 kts 84°
2026-04-21 16:21 9.32248 -79.86838 909 ft 84 kts 36°
2026-04-21 16:22 9.32824 -79.86831 683 ft 73 kts 348°
2026-04-21 16:22 9.33336 -79.86833 527 ft 75 kts
2026-04-21 16:22 9.33858 -79.86816 317 ft 76 kts
2026-04-21 16:22 9.34365 -79.86788 193 ft 70 kts
2026-04-21 16:23 9.34848 -79.86768 49 ft 66 kts
2026-04-21 16:23 9.35211 -79.86755 30 ft 37 kts
2026-04-21 16:23 9.35307 -79.86754 31 ft 30 kts
2026-04-21 16:25 9.35372 -79.86674 31 ft 17 kts 97°
2026-04-21 16:25 9.35423 -79.86585 30 ft 16 kts
2026-04-21 16:26 9.35517 -79.86584 30 ft 24 kts 357°
2026-04-21 16:26 9.35596 -79.86580 30 ft 9 kts
2026-04-21 16:26 9.35709 -79.86574 30 ft 23 kts
2026-04-21 16:26 9.35904 -79.86569 29 ft 32 kts
2026-04-21 16:27 9.36013 -79.86506 29 ft 6 kts 91°
2026-04-21 16:27 9.36013 -79.86487 29 ft 1 kts 40°
2026-04-21 16:27 9.36017 -79.86490 29 ft 0 kts 310°
2026-04-21 16:27 9.36017 -79.86491 29 ft 0 kts 291°